Weather in Akhsarisar

Russia / Republic of North Ossetia — Alania     43°08′09″N   43°49′06″E
temp.,
°C
wind,
m/s
gust,
m/s
humid.,
%
clouds,
%
prec.,
mm/h
press.,
hPa
HPBL,
m
7 march, sun
sun700:00+2wsw3461100 0.0 101746
03:000ne137096 0.0 101977
06:00−5ne2693100 1.8 1023476
09:00−4ne3494100 4.4 1023436
12:00−3ne2383100 0.9 1022636
15:00−2e2374100 1.2 1021789
18:00−5se128392 0.1 102327
21:00−6sw228388 0.1 102348
8 march, mon
mon800:00−7sw127721 0.0 102227
03:00−8sw227811 0.0 102245
06:00−7wsw227340 0.0 102135
09:00−2ne017043 0.0 1020335
12:00−1e2270100 0.0 1018803
15:000ese1175100 0.1 1017603
18:00−3s1285100 0.3 101729
21:00−4sw228493 0.4 101939
9 march, tue
tue900:00−5sw227764 0.0 101943
03:00−6wsw228375 0.0 101945
06:00−6sw228696 0.1 101949
09:00−2nne118187 0.1 1018304
12:00+1ene117565 0.0 1017716
15:00+1ese127657 0.1 1017755
18:00−2ssw128298 0.1 101930
21:00−3sw229099 0.9 102261
10 march, wed
wed1000:00−5sw3385100 1.3 1023106
03:00−6sw2384100 1.7 102397
06:00−7sw338597 0.2 102467
09:00−2e018499 0.2 1022289
12:00−1ne3388100 0.4 1020576
15:00−1ne3495100 1.8 1019442
18:00−2ene2498100 1.9 1019233
21:00−3ene2598100 3.9 1019413
11 march, thu
thu1100:00−4ene2398100 1.6 1017211
03:00−5nnw1197100 3.6 101693
06:00−5nw1297100 3.6 1017151
09:00−5ne3596100 7.4 1019377
12:00−5ne4696100 3.4 1019558
15:00−5ne4697100 7.4 1019568
18:00−7ne3597100 3.4 1022381
21:00−9ne2497100 5.8 1024314